BEIDOU-2 M4 (C12)

Last updated on Mon Jun 22 2026 00:03:30 GMT+0000 (Coordinated Universal Time)

1 38251U 12018B 26172.41666900 -.00000098 00000+0 00000+0 0 9997 2 38251 55.6541 303.9461 0011367 274.9349 84.9285 1.86229230 96025
UTC large
Height (km)
Speed (km/s)
/
Latitude / Longitude
Inclination (degrees)
Orbital Period (minutes)
Azimuth
Elevation
Range (km)
Doppler Factor

Next 0 passes for location: London (51.5072 / 0.1276)

No passes found over London.
BEIDOU-2 M4 (C12)